Overview Statistics Trail Chart Weather Telemetry Raw packets
 

This is the latest recevied weather packets stored in our database for station/object KC1TEM-13. If no packets are shown the sender has not sent any weather packets the latest 10 day(s).

<< 88 89 90 91 92 93 94 >>
Time Temp. Humidity Pressure Rain* Wind** Luminosity Snow
1787967086 22.22° C 76% 1016.3 hPa 0 mm - 0 W/m² -
1787966784 22.22° C 77% 1016.2 hPa 0 mm - 0 W/m² -
1787966478 22.22° C 76% 1016.1 hPa 0 mm - 0 W/m² -
1787966173 22.22° C 76% 1016.2 hPa 0 mm - 0 W/m² -
1787965873 22.78° C 77% 1016.3 hPa 0 mm - 0 W/m² -
1787965568 22.78° C 79% 1016.1 hPa 0 mm - 0 W/m² -
1787965263 22.78° C 77% 1016.3 hPa 0 mm - 0 W/m² -
1787964957 22.78° C 76% 1016.1 hPa 0 mm - 0 W/m² -
1787964652 22.78° C 77% 1016 hPa 0 mm - 0 W/m² -
1787964351 22.78° C 77% 1016 hPa 0 mm - 0 W/m² -
1787964051 22.78° C 77% 1015.9 hPa 0 mm - 0 W/m² -
1787963751 22.78° C 79% 1015.8 hPa 0 mm - 0 W/m² -
1787963446 22.78° C 80% 1016.1 hPa 0 mm - 0 W/m² -
1787963142 22.78° C 81% 1015.9 hPa 0 mm - 0 W/m² -
1787962840 23.33° C 82% 1015.8 hPa 0 mm - 0 W/m² -
1787962539 23.33° C 82% 1015.8 hPa 0 mm - 0 W/m² -
1787962238 23.33° C 85% 1015.8 hPa 0 mm - 0 W/m² -
1787961939 23.33° C 85% 1015.8 hPa 0 mm - 0 W/m² -
1787961633 23.33° C 85% 1015.6 hPa 0 mm - 0 W/m² -
1787961326 23.33° C 86% 1015.5 hPa 0 mm - 0 W/m² -
1787961021 23.33° C 85% 1015.3 hPa 0 mm - 0 W/m² -
1787960716 23.89° C 86% 1015.4 hPa 0 mm - 0 W/m² -
1787960415 23.89° C 86% 1015.3 hPa 0 mm - 0 W/m² -
1787960109 23.89° C 87% 1015.3 hPa 0 mm - 0 W/m² -
1787959804 23.89° C 87% 1015.5 hPa 0 mm - 1 W/m² -

* Rain latest hour (hover to see other rain measurements)
** Current wind speed in m/s (hover to see current wind gust speed)